Regional Weather Roundup
Issued by NWS

Home | Current Version | Previous Version | Graphics & Text | Print | Product List | Glossary On
Versions: 1 2 3 4 5 6 7 8 9 10 11 12 13 14 15 16 17 18 19 20 21 22 23 24 25 26 27 28 29 30 31 32 33 34 35 36 37 38 39 40 41 42 43 44 45 46 47 48 49 50
000
ASUS45 KBOI 011710
RWRID
WEATHER ROUNDUP FOR IDAHO
NATIONAL WEATHER SERVICE BOISE ID
1100 AM MDT WED OCT 01 2014

NOTE: "FAIR" INDICATES FEW OR NO CLOUDS BELOW 12000 FEET
WITH NO SIGNIFICANT WEATHER AND/OR OBSTRUCTIONS TO VISIBILITY

IDZ012-014-011800-
SOUTHWEST IDAHO


CITY           SKY/WX    TMP DP  RH WIND       PRES   REMARKS
BOISE          SUNNY     51  40  65 NW10      30.17S
CALDWELL       SUNNY     54  36  50 NW12      30.21R
MOUNTAIN HOME  SUNNY     54  38  56 NW18      30.15S
$$

IDZ016-017-011800-
SOUTHCENTRAL IDAHO


CITY           SKY/WX    TMP DP  RH WIND       PRES   REMARKS
BURLEY         SUNNY     48  38  68 W16       30.13R
JEROME         SUNNY     48  38  68 SW9       30.14R
TWIN FALLS     SUNNY     51  38  60 W17       30.14R
$$

IDZ019>023-011800-
SOUTHEAST IDAHO


CITY           SKY/WX    TMP DP  RH WIND       PRES   REMARKS
IDAHO FALLS    MOSUNNY   48  36  63 S6        30.09R
POCATELLO      MOSUNNY   47  41  80 W17       30.13R
REXBURG        PTSUNNY   47  33  58 VRB3      30.08R
$$

IDZ006-010-011-018-031-032-011800-
CENTRAL IDAHO MOUNTAINS


CITY           SKY/WX    TMP DP  RH WIND       PRES   REMARKS
MCCALL         MOSUNNY   44  35  70 VRB3      30.16R
HAILEY         MOSUNNY   48  30  49 W6        30.11S
STANLEY          N/A     40  30  67 W3        30.16R
SALMON         CLOUDY    48  34  57 CALM      30.12S
CHALLIS        CLOUDY    45  35  68 W5        30.13R
$$

IDZ002-004-006-007-026-011800-
NORTHERN IDAHO


CITY           SKY/WX    TMP DP  RH WIND       PRES   REMARKS
LEWISTON       SUNNY     53  43  68 E7        30.16S
LOWELL           N/A     51  46  83 CALM      30.20R
COEUR D`ALENE  SUNNY     48  41  76 S13G18    30.12S
MULLAN PASS    FOG       33  33 100 VRB5      30.09S VSB 1/4 WCI  29
$$



USA.gov is the U.S. government's official web portal to all federal, state and local government web resources and services.